Regional Weather Roundup
Issued by NWS Sioux Falls, SD

Home | Current Version | Previous Version | Graphics & Text | Print | Product List | Glossary On
Versions: 1 2 3 4 5 6 7 8 9 10 11 12 13 14 15 16 17 18 19 20 21 22 23 24 25 26 27 28 29 30 31 32 33 34 35 36 37 38 39 40 41 42 43 44 45 46 47 48 49 50
000
ASUS43 KFSD 020010
RWRFSD

WEATHER ROUNDUP FOR SE SOUTH DAKOTA/SW MINNESOTA/NW IOWA
NATIONAL WEATHER SERVICE SIOUX FALLS SD
700 PM CDT MON SEP 01 2014

NOTE: "FAIR" INDICATES FEW OR NO CLOUDS BELOW 12,000 FEET WITH NO
SIGNIFICANT WEATHER AND OR OBSTRUCTIONS TO VISIBILITY.


SDZ038>040-050-052>070-020100-
SOUTHEAST SOUTH DAKOTA

CITY           SKY/WX    TMP DP  RH WIND       PRES   REMARKS
CHAMBERLAIN    RAIN      63  56  79 CALM      29.87R
6HR MIN TEMP:  62; 6HR MAX TEMP:  78; 6HR PCP:  0.02;

HURON          CLOUDY    62  56  80 W7        29.87R
6HR MIN TEMP:  62; 6HR MAX TEMP:  79; 6HR PCP: TRACE;

MADISON        FAIR      68  55  64 W6        29.86R
MITCHELL       LGT RAIN  68  54  60 NW14      29.85R
6HR MIN TEMP:  68; 6HR MAX TEMP:  79; 6HR PCP: TRACE;

SIOUX FALLS    MOSUNNY   74  53  48 W5        29.84R
6HR MIN TEMP:  73; 6HR MAX TEMP:  78;

WINNER         RAIN      60  55  83 W10       29.92
YANKTON        SUNNY     75  54  46 CALM      29.84S
$$

MNZ071-072-080-081-089-090-097-098-020100-
SOUTHWEST MINNESOTA

CITY           SKY/WX    TMP DP  RH WIND       PRES   REMARKS
FAIRMONT       CLEAR     70  57  64 CALM      29.83R
JACKSON        CLEAR     72  59  64 CALM      29.84S
LUVERNE        CLEAR     73  55  53 W3        29.85R
MARSHALL       CLEAR     72  55  56 W8        29.80R
6HR MIN TEMP:  72; 6HR MAX TEMP:  79;

MONTEVIDEO     CLEAR     73  55  53 W3        29.79R
PIPESTONE      SUNNY     70  57  64 W3        29.85R
REDWOOD FALLS  CLEAR     76  56  49 W7        29.78S
TRACY          CLEAR     74  58  58 CALM      29.82S
WINDOM         CLEAR     73  61  64 W3        29.82S
WORTHINGTON    CLEAR     72  61  68 W5        29.85S
$$

IAZ001>003-012>014-020>022-031-032-NEZ013-014-SDZ071-020100-
NORTHWEST IOWA

CITY           SKY/WX    TMP DP  RH WIND       PRES   REMARKS
CHEROKEE       MOCLDY    70  62  76 CALM      29.85S
DENISON        CLOUDY    72  66  83 CALM      29.84F
ESTHERVILLE    PTCLDY    71  58  63 CALM      29.83F
LE MARS        PTCLDY    75  64  69 CALM      29.85S
ORANGE CITY    CLEAR     75  63  64 CALM      29.85S
SHELDON        CLEAR     72  63  73 W5        29.84R
SIOUX CITY     MOSUNNY   79  61  53 CALM      29.84F
6HR MIN TEMP:  75; 6HR MAX TEMP:  81;

SPENCER        CLEAR     74  61  63 W7        29.84S
6HR MIN TEMP:  73; 6HR MAX TEMP:  79;

STORM LAKE     MOCLDY    73  72  94 SW3       29.85F
$$

ABBREVIATIONS USED IN REMARKS
   TC - TEMPERATURE IN CELSIUS
  WCI - WIND CHILL INDEX
   HX - HEAT INDEX
  VSB - VISIBILITY



USA.gov is the U.S. government's official web portal to all federal, state and local government web resources and services.